| time (UTC) | temp F | wind direction | speed MPH | gust MPH | rain 1hr in | rain 24hr in | rain mn in | humidity % | barometer mb |
| 20260506170024 | 59 | 63 | 0.0 | 4.0 | 0.00 | 0.00 | 0.00 | 74 | 1021.0 |
| 20260506164552 | 58 | 306 | 0.0 | 0.0 | 0.00 | 0.00 | 0.00 | 74 | 1021.0 |
| 20260506163024 | 57 | 96 | 0.0 | 0.0 | 0.00 | 0.00 | 0.00 | 62 | 1021.1 |
| 20260506161605 | 56 | 100 | 0.0 | 0.0 | 0.00 | 0.00 | 0.00 | 49 | 1021.1 |
| 20260506160044 | 55 | 107 | 0.0 | 0.0 | 0.00 | 0.00 | 0.00 | 36 | 1021.1 |
| 20260506154523 | 54 | 106 | 0.0 | 0.0 | 0.00 | 0.00 | 0.00 | 35 | 1021.2 |
| 20260506153108 | 53 | 106 | 0.0 | 1.0 | 0.00 | 0.00 | 0.00 | 36 | 1021.2 |
| 20260506151543 | 53 | 106 | 0.0 | 0.0 | 0.00 | 0.00 | 0.00 | 39 | 1021.2 |
| 20260506150019 | 52 | 106 | 0.0 | 0.0 | 0.00 | 0.00 | 0.00 | 41 | 1021.3 |
| 20260506144556 | 52 | 106 | 0.0 | 0.0 | 0.00 | 0.00 | 0.00 | 43 | 1021.2 |
| 20260506143009 | 52 | 106 | 0.0 | 0.0 | 0.00 | 0.00 | 0.00 | 45 | 1021.1 |
| 20260506141534 | 52 | 106 | 0.0 | 0.0 | 0.00 | 0.00 | 0.00 | 46 | 1020.9 |
| 20260506140111 | 52 | 106 | 0.0 | 0.0 | 0.00 | 0.00 | 0.00 | 48 | 1020.7 |
| 20260506134538 | 52 | 106 | 0.0 | 0.0 | 0.00 | 0.00 | 0.00 | 50 | 1020.6 |
| 20260506133102 | 52 | 106 | 0.0 | 0.0 | 0.00 | 0.00 | 0.00 | 51 | 1020.6 |
| 20260506131543 | 53 | 106 | 0.0 | 0.0 | 0.00 | 0.00 | 0.00 | 49 | 1020.4 |
| 20260506130027 | 53 | 106 | 0.0 | 0.0 | 0.00 | 0.00 | 0.00 | 48 | 1020.3 |
| 20260506124501 | 53 | 106 | 0.0 | 0.0 | 0.00 | 0.00 | 0.00 | 46 | 1020.2 |
| 20260506123050 | 53 | 106 | 0.0 | 0.0 | 0.00 | 0.00 | 0.00 | 46 | 1020.2 |
| 20260506121508 | 53 | 106 | 0.0 | 0.0 | 0.00 | 0.00 | 0.00 | 46 | 1020.0 |
| 20260506120033 | 53 | 106 | 0.0 | 0.0 | 0.00 | 0.00 | 0.00 | 46 | 1020.0 |
| 20260506114533 | 53 | 106 | 0.0 | 0.0 | 0.00 | 0.00 | 0.00 | 47 | 1020.0 |
| 20260506113042 | 53 | 106 | 0.0 | 0.0 | 0.00 | 0.00 | 0.00 | 47 | 1019.9 |
| 20260506111511 | 53 | 106 | 0.0 | 0.0 | 0.00 | 0.00 | 0.00 | 47 | 1019.7 |
| 20260506110056 | 53 | 106 | 0.0 | 0.0 | 0.00 | 0.00 | 0.00 | 47 | 1019.6 |
| 20260506104537 | 53 | 106 | 0.0 | 0.0 | 0.00 | 0.00 | 0.00 | 47 | 1019.5 |
| 20260506103005 | 53 | 106 | 0.0 | 0.0 | 0.00 | 0.00 | 0.00 | 46 | 1019.5 |
| 20260506101531 | 53 | 106 | 0.0 | 0.0 | 0.00 | 0.00 | 0.00 | 46 | 1019.5 |
| 20260506100105 | 52 | 106 | 0.0 | 0.0 | 0.00 | 0.00 | 0.00 | 46 | 1019.5 |
| 20260506094520 | 52 | 106 | 0.0 | 0.0 | 0.00 | 0.00 | 0.00 | 47 | 1019.4 |
| 20260506093042 | 52 | 106 | 0.0 | 0.0 | 0.00 | 0.00 | 0.00 | 47 | 1019.4 |
| 20260506091556 | 52 | 106 | 0.0 | 0.0 | 0.00 | 0.02 | 0.00 | 49 | 1019.5 |
| 20260506090033 | 51 | 106 | 0.0 | 0.0 | 0.00 | 0.02 | 0.00 | 53 | 1019.5 |
| 20260506084600 | 51 | 106 | 0.0 | 0.0 | 0.00 | 0.02 | 0.00 | 56 | 1019.4 |
| 20260506083009 | 51 | 106 | 0.0 | 2.0 | 0.00 | 0.02 | 0.00 | 59 | 1019.4 |
| 20260506081545 | 51 | 106 | 0.0 | 0.0 | 0.00 | 0.07 | 0.00 | 62 | 1019.5 |
| 20260506073110 | 53 | 107 | 0.0 | 0.0 | 0.00 | 0.07 | 0.00 | 71 | 1019.3 |
| 20260506071552 | 53 | 107 | 0.0 | 0.0 | 0.00 | 0.11 | 0.07 | 72 | 1019.1 |
| 20260506061518 | 53 | 112 | 0.0 | 4.0 | 0.00 | 0.12 | 0.07 | 72 | 1018.6 |
| 20260506044511 | 55 | 95 | 0.0 | 5.0 | 0.00 | 0.14 | 0.07 | 76 | 1018.1 |
| 20260506043039 | 56 | 90 | 3.0 | 5.0 | 0.00 | 0.14 | 0.07 | 76 | 1017.7 |
| 20260506041512 | 56 | 86 | 0.0 | 5.0 | 0.00 | 0.14 | 0.07 | 76 | 1017.6 |
| 20260506040041 | 57 | 90 | 0.0 | 5.0 | 0.00 | 0.14 | 0.07 | 77 | 1017.5 |
| 20260506034504 | 57 | 90 | 3.0 | 8.0 | 0.00 | 0.14 | 0.07 | 77 | 1017.3 |
| 20260506033045 | 57 | 80 | 1.0 | 8.0 | 0.00 | 0.14 | 0.07 | 76 | 1017.1 |
| 20260506031530 | 58 | 103 | 0.0 | 5.0 | 0.00 | 0.14 | 0.07 | 76 | 1016.8 |
| 20260506030125 | 58 | 109 | 1.0 | 7.0 | 0.00 | 0.14 | 0.07 | 76 | 1016.7 |
| 20260506024530 | 58 | 94 | 3.0 | 9.0 | 0.00 | 0.14 | 0.07 | 75 | 1016.6 |
| 20260506023007 | 58 | 128 | 0.0 | 8.0 | 0.00 | 0.14 | 0.07 | 75 | 1016.5 |
| 20260506021527 | 59 | 72 | 1.0 | 10.0 | 0.00 | 0.14 | 0.07 | 74 | 1016.3 |
| 20260506020110 | 60 | 78 | 3.0 | 11.0 | 0.00 | 0.14 | 0.07 | 74 | 1016.1 |
| 20260506014612 | 61 | 306 | 2.0 | 10.0 | 0.00 | 0.14 | 0.07 | 72 | 1016.1 |
| 20260506013045 | 62 | 142 | 3.0 | 9.0 | 0.00 | 0.14 | 0.07 | 72 | 1015.9 |
| 20260506011537 | 62 | 90 | 2.0 | 10.0 | 0.00 | 0.14 | 0.07 | 71 | 1016.1 |
| 20260506010006 | 63 | 47 | 0.0 | 4.0 | 0.00 | 0.14 | 0.07 | 72 | 1016.0 |
| 20260506004547 | 62 | 184 | 0.0 | 6.0 | 0.00 | 0.14 | 0.07 | 75 | 1015.8 |
| 20260506003011 | 60 | 105 | 2.0 | 7.0 | 0.00 | 0.14 | 0.07 | 75 | 1015.7 |
| 20260506001531 | 60 | 66 | 1.0 | 8.0 | 0.00 | 0.14 | 0.07 | 75 | 1015.8 |
| 20260506000022 | 60 | 49 | 1.0 | 9.0 | 0.00 | 0.14 | 0.07 | 75 | 1015.6 |
| 20260505234610 | 61 | 84 | 1.0 | 9.0 | 0.00 | 0.14 | 0.07 | 75 | 1015.8 |
| 20260505233045 | 61 | 82 | 2.0 | 8.0 | 0.00 | 0.14 | 0.07 | 75 | 1015.7 |
| 20260505231528 | 61 | 95 | 1.0 | 7.0 | 0.00 | 0.14 | 0.07 | 75 | 1015.8 |
| 20260505230106 | 60 | 175 | 0.0 | 0.0 | 0.00 | 0.14 | 0.07 | 75 | 1015.8 |
| 20260505224543 | 60 | 225 | 0.0 | 5.0 | 0.00 | 0.14 | 0.07 | 75 | 1015.8 |
| 20260505223111 | 60 | 134 | 1.0 | 7.0 | 0.00 | 0.14 | 0.07 | 75 | 1015.8 |
| 20260505221541 | 60 | 113 | 0.0 | 5.0 | 0.00 | 0.14 | 0.07 | 76 | 1015.9 |
| 20260505220027 | 60 | 325 | 0.0 | 5.0 | 0.00 | 0.14 | 0.07 | 76 | 1015.9 |
| 20260505214611 | 60 | 100 | 0.0 | 5.0 | 0.00 | 0.14 | 0.07 | 75 | 1016.0 |
| 20260505213045 | 60 | 119 | 0.0 | 6.0 | 0.00 | 0.14 | 0.07 | 76 | 1016.1 |
| 20260505211525 | 60 | 86 | 1.0 | 6.0 | 0.00 | 0.14 | 0.07 | 76 | 1016.2 |
| 20260505210008 | 59 | 71 | 0.0 | 4.0 | 0.00 | 0.14 | 0.07 | 75 | 1016.1 |
| 20260505204544 | 59 | 78 | 0.0 | 5.0 | 0.00 | 0.14 | 0.07 | 76 | 1016.3 |
| 20260505203024 | 59 | 129 | 0.0 | 5.0 | 0.00 | 0.14 | 0.07 | 75 | 1016.3 |
| 20260505201553 | 58 | 90 | 0.0 | 5.0 | 0.00 | 0.14 | 0.07 | 75 | 1016.4 |
| 20260505200019 | 58 | 76 | 2.0 | 9.0 | 0.00 | 0.14 | 0.07 | 75 | 1016.5 |
| 20260505194549 | 59 | 95 | 1.0 | 8.0 | 0.00 | 0.14 | 0.07 | 75 | 1016.4 |
| 20260505193018 | 59 | 32 | 0.0 | 0.0 | 0.00 | 0.14 | 0.07 | 75 | 1016.4 |
| 20260505191608 | 58 | 98 | 0.0 | 6.0 | 0.00 | 0.14 | 0.07 | 75 | 1016.5 |
| 20260505190049 | 58 | 336 | 0.0 | 4.0 | 0.00 | 0.14 | 0.07 | 74 | 1016.4 |
| 20260505184510 | 58 | 54 | 0.0 | 0.0 | 0.00 | 0.14 | 0.07 | 69 | 1016.3 |
| 20260505183030 | 57 | 46 | 0.0 | 2.0 | 0.00 | 0.14 | 0.07 | 71 | 1016.3 |
| 20260505181509 | 57 | 333 | 0.0 | 5.0 | 0.00 | 0.14 | 0.07 | 69 | 1016.3 |
| 20260505180046 | 57 | 317 | 0.0 | 7.0 | 0.00 | 0.14 | 0.07 | 64 | 1016.2 |
| 20260505174518 | 56 | 315 | 0.0 | 4.0 | 0.00 | 0.14 | 0.07 | 61 | 1016.1 |
| 20260505173110 | 56 | 265 | 0.0 | 3.0 | 0.00 | 0.14 | 0.07 | 52 | 1016.0 |
| 20260505171532 | 56 | 323 | 0.0 | 5.0 | 0.00 | 0.14 | 0.07 | 45 | 1015.8 |